Wind_Speed
21 20 20 19 18 17 16 15 15 15 15 15 14 14 14 13 13 11 10 10 10 11 13 13 12 10 8 3 4 2 8 4 8 10 12 10 6 3 2 3 8 4 10 14 13 14 11
20 20 19 20 20 19 19 18 17 16 15 15 15 14 14 15 15 13 11 9 9 11 13 12 11 9 5 3 1 6 6 5 8 11 11 11 4 11 14 9 7 12 16 10 8 10 12
21 22 22 22 21 21 20 19 19 19 18 17 16 16 15 15 15 14 12 10 10 12 12 10 8 6 6 3 3 6 4 6 4 7 7 4 13 14 11 3 8 15 12 9 4 3 4
21 22 22 22 22 21 21 21 20 19 19 19 18 17 17 17 16 15 12 10 10 12 9 6 5 4 6 2 5 4 2 4 2 4 9 9 12 11 1 6 3 3 3 4 5 7 4
20 20 20 19 19 20 20 20 20 20 20 20 20 19 18 17 17 15 11 11 10 7 5 4 5 5 7 5 10 10 8 7 4 3 7 7 11 3 4 3 3 2 5 3 5 9 2
18 19 19 20 20 20 20 20 21 21 22 22 21 20 20 18 18 15 9 9 8 6 5 7 9 8 8 5 6 12 11 12 10 11 8 4 2 3 3 4 4 4 4 6 8 8 9
19 18 18 19 20 21 21 22 21 21 21 21 23 22 21 18 17 15 6 6 9 2 8 12 18 18 25 10 5 9 5 5 6 1 5 3 4 6 11 7 7 4 6 11 5 9 7
19 18 18 20 21 22 22 22 22 22 22 22 22 22 21 19 16 13 7 3 10 13 12 22 23 26 25 13 7 9 13 9 3 4 1 5 7 12 7 8 7 7 7 3 2 10 5
19 19 18 20 22 23 23 22 23 23 23 23 23 22 21 18 13 8 8 6 17 22 6 20 16 17 21 15 15 14 17 15 5 3 5 7 11 10 8 11 9 8 9 9 8 13 11
18 19 19 20 23 24 24 23 22 24 24 24 24 23 22 19 8 7 7 8 11 13 4 7 4 8 16 12 5 14 23 13 4 11 6 7 18 11 9 9 6 6 3 14 14 11 5
19 20 21 22 23 24 23 22 22 23 24 25 25 24 22 20 17 13 9 6 5 2 3 5 7 6 16 11 6 12 23 15 7 9 1 10 7 5 8 7 4 6 3 8 6 5 4
19 20 21 22 24 25 24 23 23 23 24 26 26 25 24 21 19 11 8 6 6 5 6 4 10 7 8 8 9 19 13 13 6 3 4 9 14 5 8 2 2 3 6 8 5 3 2
21 21 22 23 24 25 25 23 23 24 26 28 28 26 26 25 18 8 6 5 4 3 5 6 7 7 9 7 4 7 6 4 5 2 4 7 5 4 4 2 5 7 7 4 4 3 6
21 23 23 23 23 24 24 23 23 24 27 31 30 29 27 22 15 11 5 4 4 5 6 2 2 6 9 9 7 7 6 4 5 3 2 3 7 6 3 6 6 3 8 6 5 4 6
22 23 23 22 23 23 24 23 23 23 26 33 32 31 25 11 13 14 9 3 8 5 4 7 6 6 5 6 8 7 10 8 8 10 7 5 6 2 7 5 9 2 1 7 5 1 2
22 21 21 19 21 22 23 22 22 22 25 30 30 31 13 0 11 19 4 5 5 0 8 5 2 3 5 6 8 8 10 8 6 10 9 6 3 2 5 5 0 9 5 4 3 2 2
22 17 18 18 20 21 21 20 21 22 24 26 24 15 17 16 15 9 3 6 6 11 16 7 7 7 7 8 9 8 9 4 8 7 8 3 4 6 4 3 8 1 1 3 5 5 4
18 21 16 17 18 19 18 18 19 21 22 22 11 4 7 13 4 3 3 5 8 16 25 9 6 8 7 7 8 6 2 3 7 6 4 2 6 1 5 5 3 7 9 6 5 5 2
18 15 17 16 16 16 14 14 16 19 22 24 18 7 4 10 2 3 6 7 12 14 13 5 7 12 11 9 3 5 7 2 14 5 5 0 2 3 9 7 7 5 3 2 3 3 5
16 13 12 13 14 14 13 13 14 16 18 19 7 4 7 4 8 2 6 6 7 15 12 13 10 15 11 6 3 5 6 3 14 12 12 8 3 6 6 6 2 5 8 3 5 3 4
11 10 11 12 12 14 12 12 13 14 14 13 3 3 7 4 7 7 3 4 10 11 10 14 6 7 12 5 3 5 4 6 7 12 5 5 5 5 6 6 2 4 7 7 3 5 5
9 10 9 12 11 12 12 12 12 12 11 5 5 5 8 11 12 7 3 4 8 13 6 5 12 22 16 6 9 9 8 5 5 2 4 2 2 4 2 4 4 3 6 6 5 4 5
9 9 10 10 12 11 11 11 12 11 10 3 3 7 4 6 6 4 3 7 16 10 10 14 19 16 9 6 14 21 21 23 16 10 5 7 5 3 2 3 3 3 3 2 3 6 2
10 11 12 12 12 12 11 11 13 12 9 7 4 5 4 4 2 3 13 20 8 5 7 20 23 7 9 28 8 8 14 16 20 5 14 7 6 3 3 4 2 7 3 4 6 3 5
11 12 11 11 11 12 12 11 11 12 10 8 3 2 4 4 6 12 10 10 14 13 9 18 15 26 33 19 4 5 5 5 2 9 7 6 5 3 4 4 3 1 1 2 2 2 3
14 13 13 14 15 14 13 12 11 11 11 9 3 4 6 5 5 3 9 14 4 4 5 6 30 27 10 2 2 4 3 6 4 6 4 6 6 5 3 5 5 7 4 6 4 3 1
15 16 16 16 17 17 15 12 11 10 11 10 4 7 5 6 15 6 2 6 8 4 2 8 14 16 17 3 3 2 2 4 5 8 5 4 3 6 3 3 4 4 9 7 2 6 8
14 15 16 16 17 16 13 12 11 10 10 11 5 10 8 8 29 26 16 14 12 7 3 9 10 5 6 4 3 2 2 3 4 3 7 6 5 3 3 3 4 10 4 4 5 6 9
12 13 13 14 14 14 13 11 11 10 9 8 10 9 13 13 18 21 26 27 30 22 9 4 3 4 4 2 4 4 2 3 4 3 3 2 5 5 6 6 4 6 2 8 11 14 10
Wind_Direction
39 37 36 34 29 23 17 11 7 3 358 356 354 353 350 347 342 337 330 322 320 321 323 322 319 318 321 285 265 335 319 221 212 203 201 211 286 304 294 147 138 187 155 181 160 166 184
35 33 31 29 26 24 20 15 9 3 357 353 351 348 345 343 340 335 329 319 312 315 320 320 314 309 309 282 30 348 285 216 197 195 195 218 250 316 294 210 208 169 93 78 93 132 164
28 26 24 22 18 16 14 13 11 8 2 356 350 345 341 338 337 333 326 316 312 316 321 320 314 300 260 234 39 349 68 112 146 194 212 276 311 305 288 318 160 151 110 85 54 171 236
22 20 18 16 13 10 7 5 3 2 1 358 353 346 340 335 333 330 324 312 309 312 320 330 341 319 254 216 235 237 238 161 172 286 289 318 316 307 253 316 99 123 71 118 277 326 183
14 12 11 10 7 5 3 1 0 358 355 353 351 348 341 334 328 327 325 313 313 311 310 316 311 316 277 229 229 233 241 248 232 258 265 300 307 323 322 89 49 242 153 105 301 203 262
5 4 3 2 1 0 358 356 355 353 352 349 347 345 342 337 326 324 326 319 317 299 289 288 269 303 245 232 224 197 219 248 269 238 251 270 357 25 355 83 210 208 131 177 184 205 210
358 357 357 358 357 356 354 352 349 348 347 345 343 341 339 338 324 318 314 340 359 348 301 269 282 265 286 252 186 192 193 222 260 178 174 224 71 227 236 202 217 232 248 169 215 161 166
353 353 355 356 355 352 349 348 347 345 342 340 338 336 336 336 320 310 302 352 18 319 302 287 276 272 271 226 208 218 200 202 232 243 142 13 237 238 261 281 269 273 195 174 107 171 149
348 351 353 353 351 349 347 346 346 344 341 338 334 331 331 332 315 297 264 294 331 330 287 298 256 249 253 215 212 214 205 201 185 245 218 181 240 216 221 265 270 274 173 177 167 192 211
343 347 348 348 348 347 347 345 345 344 342 338 334 330 327 329 313 277 282 331 334 356 26 276 203 244 231 210 258 241 196 187 196 220 215 216 255 229 241 237 187 206 96 184 163 151 204
341 340 340 343 342 343 344 343 342 342 342 340 336 331 323 319 302 290 295 312 355 358 349 240 199 232 189 180 149 181 203 204 230 252 103 259 274 206 207 187 158 217 21 134 145 173 100
335 337 337 335 335 337 337 337 337 337 338 338 336 331 317 310 295 318 279 295 346 53 253 255 171 173 133 209 208 177 184 202 240 241 234 243 257 182 201 159 140 82 59 40 55 113 14
324 326 330 331 330 330 331 331 331 331 329 329 326 327 312 296 279 287 294 322 48 174 307 198 181 159 179 205 183 167 178 201 183 84 308 325 290 294 136 137 13 79 62 6 356 15 222
317 318 322 324 326 327 328 329 326 328 330 328 323 322 311 282 269 249 228 74 207 235 248 302 168 180 185 176 201 201 146 208 262 127 58 182 315 194 209 156 177 178 142 155 195 186 259
309 312 317 321 323 324 328 327 326 330 333 327 329 326 316 298 224 205 177 128 203 220 321 7 355 158 246 224 160 149 195 201 208 165 174 170 265 145 162 163 127 265 119 185 122 75 41
315 313 315 321 324 325 326 326 324 328 334 332 332 329 346 278 178 175 98 233 240 289 13 31 313 164 290 224 149 172 181 219 219 185 165 210 31 261 185 72 314 150 185 50 15 159 291
314 316 315 319 317 322 327 324 326 327 334 337 335 329 350 145 135 150 168 243 304 324 352 346 330 286 261 259 180 194 204 289 158 149 118 113 97 300 90 178 189 337 334 78 116 140 167
307 306 316 318 323 322 325 325 329 332 339 341 346 348 118 153 93 161 209 224 274 292 300 294 268 235 270 273 225 175 118 135 127 114 93 33 130 157 231 275 251 193 198 147 131 244 166
312 315 312 317 322 327 327 330 336 340 345 348 333 293 12 208 254 269 297 282 267 277 274 264 285 292 288 292 276 123 109 84 112 96 145 162 19 42 347 354 5 31 23 176 129 101 191
308 315 324 331 330 329 329 333 338 342 343 344 338 345 333 356 46 62 5 310 323 319 294 287 265 277 278 262 215 167 125 144 111 114 117 93 90 142 184 202 192 319 311 320 114 110 176
325 324 328 327 324 326 328 332 338 341 340 343 337 299 12 336 334 331 347 279 329 357 349 330 292 345 319 226 197 144 131 99 45 127 81 103 177 189 206 224 269 249 291 311 209 210 157
319 312 320 312 315 318 323 329 338 344 347 20 3 1 335 303 320 334 306 278 311 349 328 343 343 327 318 232 199 188 140 133 165 228 124 57 226 161 269 289 305 311 348 321 83 111 123
303 302 305 306 309 316 323 329 333 339 347 318 307 297 299 284 314 332 281 327 315 13 314 340 315 313 311 271 258 209 179 170 165 148 150 140 135 99 248 7 0 13 231 69 63 51 82
294 299 299 305 301 303 315 324 328 330 334 331 324 326 302 277 295 279 313 305 304 344 298 310 312 287 297 319 282 178 158 146 145 172 145 136 132 128 183 45 28 244 44 96 110 57 351
277 285 292 296 304 306 308 312 320 323 322 320 265 258 290 279 297 300 328 326 322 329 312 304 294 308 312 307 51 56 1 98 192 155 166 143 124 115 135 165 278 187 249 162 139 277 306
262 262 270 277 285 292 300 303 307 313 312 313 234 230 264 307 252 307 332 299 299 321 321 285 320 329 334 93 49 131 166 174 176 134 175 86 85 126 116 141 199 231 203 184 104 278 246
272 264 266 278 282 286 286 289 295 301 305 307 281 211 251 266 278 275 290 311 310 317 287 310 337 330 353 57 41 126 188 162 158 152 153 85 42 146 140 181 294 232 183 163 139 239 192
278 277 276 278 280 285 285 284 286 290 297 300 283 220 260 262 277 288 267 250 274 250 186 304 349 3 310 51 37 274 133 187 98 164 156 158 135 173 90 105 246 178 143 194 179 150 195
280 280 281 282 281 277 279 283 277 279 285 297 294 229 266 278 260 272 277 262 253 245 278 210 242 313 301 353 31 316 14 60 145 182 350 87 169 178 160 207 216 151 147 243 203 169 188
Height
1557 1555 1552 1550 1548 1546 1544 1542 1539 1537 1535 1533 1530 1528 1526 1523 1521 1519 1517 1515 1513 1512 1510 1509 1507 1506 1505 1505 1502 1502 1502 1501 1503 1505 1506 1508 1510 1512 1513 1513 1513 1514 1515 1519 1517 1520 1523
1559 1557 1554 1552 1549 1547 1545 1542 1540 1537 1535 1532 1530 1527 1525 1522 1520 1517 1515 1514 1512 1510 1509 1507 1506 1505 1505 1505 1501 1501 1500 1500 1501 1503 1505 1508 1509 1511 1510 1509 1510 1509 1514 1520 1521 1522 1521
1561 1558 1556 1553 1551 1548 1546 1543 1540 1538 1535 1532 1529 1526 1523 1521 1518 1516 1514 1512 1510 1509 1507 1505 1504 1503 1503 1501 1500 1501 1500 1500 1501 1503 1505 1508 1509 1511 1507 1506 1505 1508 1520 1520 1521 1519 1522
1562 1560 1557 1555 1552 1549 1547 1544 1541 1538 1535 1531 1528 1525 1522 1519 1516 1514 1512 1510 1509 1507 1506 1505 1503 1503 1499 1499 1499 1500 1501 1500 1501 1502 1503 1505 1506 1506 1505 1505 1506 1510 1514 1527 1522 1521 1518
1563 1561 1558 1556 1553 1550 1547 1544 1541 1538 1535 1531 1528 1524 1521 1518 1515 1512 1511 1509 1507 1505 1505 1504 1504 1503 1497 1496 1497 1498 1499 1500 1501 1501 1502 1504 1504 1503 1503 1508 1518 1513 1528 1529 1528 1519 1519
1563 1561 1558 1556 1553 1550 1547 1544 1541 1538 1534 1531 1527 1524 1520 1517 1513 1510 1509 1508 1506 1505 1505 1504 1503 1505 1496 1494 1494 1495 1498 1499 1500 1500 1502 1503 1503 1506 1506 1515 1534 1522 1519 1519 1519 1513 1515
1563 1561 1558 1555 1552 1549 1546 1543 1539 1536 1533 1529 1526 1522 1519 1516 1512 1509 1509 1508 1509 1507 1503 1501 1499 1496 1494 1493 1494 1495 1496 1497 1498 1500 1503 1502 1512 1518 1504 1504 1502 1506 1507 1511 1510 1506 1512
1563 1560 1557 1555 1552 1548 1545 1541 1538 1535 1531 1527 1524 1520 1517 1515 1511 1509 1508 1508 1508 1511 1499 1494 1491 1490 1490 1493 1493 1492 1494 1497 1497 1502 1501 1508 1515 1500 1497 1497 1501 1504 1508 1511 1508 1505 1510
1561 1559 1556 1554 1551 1547 1544 1540 1537 1533 1529 1526 1522 1518 1514 1512 1509 1508 1507 1508 1507 1504 1503 1484 1483 1484 1484 1488 1487 1489 1493 1494 1496 1501 1501 1511 1497 1492 1498 1498 1502 1501 1505 1506 1507 1504 1506
1561 1558 1555 1553 1549 1546 1542 1538 1535 1531 1528 1524 1520 1516 1512 1508 1509 1506 1506 1507 1505 1502 1510 1490 1479 1480 1482 1484 1484 1484 1488 1491 1493 1497 1496 1500 1486 1492 1493 1497 1496 1502 1484 1489 1495 1511 1530
1559 1556 1554 1551 1547 1544 1540 1537 1533 1529 1525 1521 1517 1514 1510 1508 1506 1504 1506 1504 1502 1503 1535 1478 1476 1476 1477 1481 1481 1481 1483 1487 1490 1491 1494 1495 1487 1488 1492 1487 1483 1493 1481 1490 1495 1509 1513
1557 1554 1551 1548 1545 1541 1538 1534 1530 1526 1522 1518 1514 1511 1506 1505 1503 1503 1501 1501 1502 1517 1525 1478 1472 1473 1477 1478 1480 1480 1482 1484 1484 1485 1486 1486 1478 1477 1478 1475 1477 1481 1488 1500 1506 1516 1536
1554 1552 1549 1546 1542 1538 1535 1531 1528 1523 1519 1514 1510 1507 1502 1499 1499 1500 1501 1502 1517 1525 1477 1475 1474 1471 1474 1478 1480 1480 1482 1485 1493 1500 1500 1485 1480 1473 1472 1480 1480 1488 1510 1543 1539 1543 1542
1551 1548 1546 1543 1539 1535 1532 1528 1524 1520 1515 1509 1504 1499 1494 1492 1494 1497 1498 1504 1521 1488 1481 1465 1468 1470 1478 1472 1478 1479 1484 1489 1482 1488 1503 1504 1508 1477 1470 1479 1489 1488 1504 1537 1546 1550 1534
1548 1545 1542 1539 1536 1532 1529 1525 1521 1517 1512 1504 1498 1492 1484 1484 1486 1491 1497 1514 1503 1487 1474 1477 1467 1477 1477 1468 1472 1478 1482 1482 1475 1479 1499 1503 1495 1467 1468 1470 1478 1490 1505 1497 1520 1524 1535
1543 1541 1538 1536 1533 1530 1526 1522 1518 1515 1510 1503 1495 1486 1481 1479 1483 1489 1496 1503 1489 1478 1478 1478 1484 1474 1482 1469 1472 1478 1480 1464 1468 1467 1470 1481 1496 1471 1467 1470 1474 1483 1484 1510 1526 1533 1532
1539 1537 1535 1533 1530 1527 1524 1520 1516 1512 1508 1502 1495 1488 1483 1481 1485 1490 1501 1498 1483 1479 1483 1482 1484 1485 1477 1476 1462 1471 1467 1457 1457 1463 1463 1471 1487 1488 1475 1482 1487 1489 1495 1499 1510 1522 1536
1536 1534 1532 1530 1527 1524 1521 1518 1515 1510 1506 1502 1496 1495 1489 1489 1489 1491 1496 1488 1483 1480 1482 1482 1475 1475 1473 1464 1460 1462 1464 1458 1454 1456 1470 1471 1491 1502 1488 1475 1473 1478 1486 1495 1520 1520 1522
1532 1531 1529 1527 1525 1522 1520 1517 1514 1510 1506 1501 1497 1493 1490 1490 1497 1493 1487 1484 1481 1479 1479 1477 1471 1469 1464 1467 1458 1454 1456 1458 1455 1460 1469 1470 1496 1514 1502 1490 1481 1486 1483 1486 1496 1506 1520
1529 1528 1527 1525 1523 1521 1518 1516 1514 1511 1507 1505 1501 1498 1488 1487 1489 1490 1491 1487 1482 1476 1472 1471 1465 1460 1460 1459 1449 1458 1458 1458 1456 1459 1464 1467 1492 1503 1519 1507 1497 1496 1490 1483 1494 1513 1512
1527 1526 1525 1524 1522 1520 1517 1515 1513 1510 1508 1506 1504 1500 1499 1498 1491 1491 1491 1488 1482 1476 1467 1466 1459 1460 1460 1457 1453 1457 1455 1458 1461 1461 1465 1473 1495 1493 1493 1489 1487 1488 1487 1484 1488 1490 1500
1526 1524 1523 1522 1520 1518 1516 1514 1511 1509 1507 1506 1506 1504 1501 1497 1494 1491 1488 1486 1482 1479 1481 1472 1471 1460 1458 1457 1453 1456 1452 1457 1462 1464 1467 1472 1492 1488 1489 1485 1487 1489 1484 1478 1482 1485 1489
1523 1522 1521 1520 1518 1517 1515 1513 1510 1508 1507 1505 1505 1505 1503 1497 1494 1494 1489 1487 1482 1480 1475 1474 1472 1465 1453 1446 1441 1437 1437 1443 1449 1460 1470 1477 1488 1500 1502 1491 1489 1501 1485 1483 1484 1485 1486
1520 1519 1518 1517 1516 1515 1513 1512 1510 1507 1506 1506 1505 1505 1502 1499 1495 1492 1488 1484 1479 1481 1481 1472 1468 1462 1448 1441 1436 1436 1436 1441 1447 1454 1456 1479 1486 1496 1504 1496 1518 1494 1481 1479 1483 1486 1486
1517 1516 1515 1515 1513 1512 1512 1510 1508 1507 1505 1504 1503 1504 1502 1497 1493 1488 1485 1483 1478 1476 1474 1471 1462 1458 1449 1443 1442 1450 1457 1452 1453 1451 1458 1460 1481 1496 1506 1515 1501 1486 1482 1482 1484 1487 1485
1512 1512 1511 1510 1510 1509 1508 1508 1506 1505 1504 1502 1502 1502 1502 1499 1487 1487 1486 1483 1480 1476 1473 1467 1457 1448 1443 1441 1447 1459 1468 1462 1462 1459 1457 1464 1468 1485 1505 1506 1512 1491 1479 1478 1480 1498 1483
1507 1507 1507 1506 1506 1505 1505 1504 1503 1502 1501 1501 1500 1499 1499 1497 1484 1484 1485 1484 1481 1478 1477 1471 1466 1451 1445 1445 1455 1458 1460 1449 1466 1468 1466 1476 1482 1491 1499 1501 1494 1478 1475 1478 1495 1497 1479
1503 1503 1503 1502 1501 1501 1500 1501 1500 1500 1499 1499 1498 1497 1497 1492 1482 1478 1478 1479 1479 1479 1478 1472 1468 1467 1457 1455 1456 1454 1457 1455 1459 1458 1463 1472 1485 1490 1496 1498 1498 1472 1476 1483 1480 1476 1476
1499 1499 1498 1498 1497 1497 1497 1497 1497 1497 1496 1496 1495 1495 1493 1490 1480 1474 1472 1471 1472 1473 1476 1474 1474 1473 1470 1464 1462 1462 1456 1456 1462 1470 1455 1472 1469 1479 1481 1485 1469 1472 1472 1472 1471 1471 1473